Location: Zagreb
(45.8000°N, 16.0000°E)
Time: 15:51:01
(UTC+02:00)

Transit 2A Rocket - Pass Details

Date: 13 August 2022
Orbit: 593 x 907 km, 66.7° (Epoch: 25 September)

Event Time Altitude Azimuth Distance (km) Brightness Sun altitude
Rises 01:57:03 0° 337° (NNW) 2,844 8.7 -28.2°
Reaches altitude 10° 02:00:12 10° 2° (N) 1,956 8.0 -28.0°
Maximum altitude 02:02:42 15° 37° (NE) 1,681 7.5 -27.9°
Drops below altitude 10° 02:05:16 10° 72° (ENE) 2,005 7.6 -27.8°
Sets 02:08:33 0° 96° (E) 2,963 8.2 -27.6°
